• Join FlightAware (Why Join?)
  • Login
  • US Flag GB Flag 
09:40 EDT


 

Airport Tracker/Info


-or-


 

Live Flight TrackerFlight Track Log ✈ DAL3698 ✈ 18-Apr-2013 ✈ KLAN - KMSP

Flight Track Log - Related Links

Times and Time Zones

All times are in EDT time to prevent confusion due to time zone crossing. See the DAL3698 flight status page for this flight to view local times or setup timezone preferences in your user account.

Time Position Orientation Groundspeed Altitude Reporting Facility
EDT Latitude Longitude Course Direction KTS MPH feet Rate Location/Type
08:02 42.8522 -84.5225 307° West 258 297 3,500  Level Chicago Center
08:03 42.8872 -84.5978 302° West 240 276 5,900 2,340 Climbing Chicago Center
08:04 42.8969 -84.6856 279° West 238 274 8,300 2,160 Climbing Chicago Center
08:05 42.9017 -84.7761 274° West 238 274 10,400 1,560 Climbing Chicago Center
08:06 42.8953 -84.8769 265° West 259 298 11,500 1,260 Climbing Chicago Center
08:07 42.9636 -85.1638 307° West  Level FlightAware Approximate
08:07 42.8792 -84.9900 259° West 298 343 13,000  Level Chicago Center
08:08 42.8631 -85.1028 259° West 304 350 14,800 1,860 Climbing Chicago Center
08:09 42.8511 -85.2186 262° West 308 354 16,800 1,860 Climbing Chicago Center
08:10 42.8417 -85.3300 263° West 300 345 18,600 1,440 Climbing Chicago Center
08:11 42.8300 -85.4444 262° West 303 349 19,800 1,080 Climbing Chicago Center
08:12 42.8678 -85.5914 289° West 355 409 20,800 1,020 Climbing Chicago Center
08:13 42.9403 -85.6958 313° West 378 435 21,900 780 Climbing Chicago Center
08:14 43.0164 -85.7961 316° Northwest 385 443 22,500 600 Climbing Chicago Center
08:15 43.0928 -85.8997 315° West 393 452 23,200 720 Climbing Chicago Center
08:16 43.1622 -86.0081 311° West 392 451 24,000 780 Climbing Chicago Center
08:17 43.2322 -86.1147 312° West 384 442 24,800 540 Climbing Chicago Center
08:18 43.3031 -86.2228 312° West 384 442 25,200 480 Climbing Chicago Center
08:19 43.3886 -86.3525 312° West 383 441 25,800 540 Climbing Chicago Center
08:20 43.4178 -86.3981 311° West 388 447 26,000 360 Climbing Minneapolis Center
08:21 43.4758 -86.4867 312° West 390 449 26,400 480 Climbing Minneapolis Center
08:22 43.5633 -86.6206 312° West 392 451 27,100 480 Climbing Minneapolis Center
08:23 43.6075 -86.6875 312° West 395 455 27,200 240 Climbing Chicago Center
08:23 43.6372 -86.7336 312° West 396 456 27,400 300 Climbing Minneapolis Center
08:24 43.7256 -86.8328 321° Northwest 418 481 27,700 240 Climbing Minneapolis Center
08:25 43.8556 -86.9217 334° Northwest 436 502 28,000 120 Climbing Minneapolis Center
08:26 43.9644 -86.9914 335° Northwest 432 497 28,000  Level Minneapolis Center
08:27 44.0725 -87.0611 335° Northwest 431 496 28,000  Level Minneapolis Center
08:28 44.1711 -87.1247 335° Northwest 430 495 28,000  Level Minneapolis Center
08:29 44.2800 -87.1969 335° Northwest 431 496 28,000  Level Minneapolis Center
08:30 44.3967 -87.2778 334° Northwest 430 495 28,000  Level Minneapolis Center
08:31 44.5186 -87.3558 335° Northwest 432 497 28,000  Level Minneapolis Center
08:32 44.6278 -87.4278 335° Northwest 432 497 28,000  Level Minneapolis Center
08:33 44.7367 -87.4983 335° Northwest 431 496 28,000  Level Minneapolis Center
08:34 44.8478 -87.5708 335° Northwest 435 501 28,000  Level Minneapolis Center
08:35 44.9586 -87.6394 336° Northwest 435 501 28,000  Level Minneapolis Center
08:36 44.9836 -87.7753 285° West 383 441 28,000  Level Minneapolis Center
08:37 44.9817 -87.9097 269° West 348 400 28,000  Level Minneapolis Center
08:38 44.9803 -88.0483 269° West 352 405 28,000  Level Minneapolis Center
08:39 44.9789 -88.2139 269° West 353 406 28,000  Level Minneapolis Center
08:40 44.9775 -88.3594 269° West 363 418 28,000  Level Minneapolis Center
08:41 44.9756 -88.5050 269° West 371 427 28,000  Level Minneapolis Center
08:42 44.9739 -88.6531 269° West 377 434 28,000  Level Minneapolis Center
08:43 44.9714 -88.8011 269° West 378 435 28,000  Level Minneapolis Center
08:44 44.9692 -88.9517 269° West 383 441 28,000  Level Minneapolis Center
08:46 44.9661 -89.1025 268° West 386 444 28,000  Level Minneapolis Center
08:47 44.9622 -89.2814 268° West 390 449 28,000  Level Minneapolis Center
08:48 44.9600 -89.4339 269° West 390 449 28,000  Level Minneapolis Center
08:49 44.9567 -89.5853 268° West 388 447 28,000  Level Minneapolis Center
08:50 44.9522 -89.7333 268° West 381 438 28,000  Level Minneapolis Center
08:51 44.9494 -89.8817 269° West 380 437 28,000  Level Minneapolis Center
08:52 44.9456 -90.0294 268° West 377 434 28,000  Level Minneapolis Center
08:53 44.9414 -90.1800 268° West 382 440 28,000  Level Minneapolis Center
08:54 44.9369 -90.3308 268° West 384 442 28,000  Level Minneapolis Center
08:55 44.9331 -90.4814 268° West 383 441 28,000 -780 Level Minneapolis Center
08:56 44.9419 -90.6358 275° West 391 450 26,500 -1,620 Descending Minneapolis Center
08:57 44.9542 -90.8036 276° West 359 413 24,700 -1,260 Descending Minneapolis Center
08:58 44.9636 -90.9481 275° West 363 418 24,000 -360 Descending Minneapolis Center
08:59 44.9731 -91.0853 276° West 365 420 24,000 -120 Level Minneapolis Center
09:00 44.9836 -91.2347 276° West 365 420 23,800 -1,020 Descending Minneapolis Center
09:01 44.9928 -91.3839 275° West 365 420 22,000 -1,860 Descending Minneapolis Center
09:02 45.0033 -91.5250 276° West 351 404 20,100 -1,860 Descending Minneapolis Center
09:03 45.0117 -91.6622 275° West 349 402 18,300 -1,860 Descending Minneapolis Center
09:04 45.0197 -91.7839 275° West 323 372 16,300 -1,920 Descending Minneapolis Center
09:05 45.0350 -91.8964 281° West 318 366 14,600 -1,860 Descending FAA TRACON SMA TRACON (SMA)
09:05 45.0383 -91.9447 276° West 318 366 14,000 -1,800 Descending FAA TRACON SMA TRACON (SMA)
09:06 45.0397 -91.9831 273° West 321 369 13,400 -1,800 Descending FAA TRACON SMA TRACON (SMA)
09:06 45.0406 -92.0217 272° West 320 368 12,800 -1,800 Descending FAA TRACON SMA TRACON (SMA)
09:06 45.0433 -92.0711 275° West 326 375 12,200 -1,860 Descending FAA TRACON SMA TRACON (SMA)
09:07 45.0447 -92.1111 273° West 331 381 11,600 -1,560 Descending FAA TRACON SMA TRACON (SMA)
09:07 45.0489 -92.1514 278° West 333 383 11,200 -900 Descending FAA TRACON SMA TRACON (SMA)
09:07 45.0500 -92.1908 272° West 331 381 11,000 -300 Descending FAA TRACON SMA TRACON (SMA)
09:08 45.0517 -92.2397 273° West 325 374 11,000 -180 Level FAA TRACON SMA TRACON (SMA)
09:08 45.0528 -92.2792 272° West 326 375 10,900  Descending FAA TRACON SMA TRACON (SMA)
09:08 45.0483 -92.3178 261° West 325 374 11,000 -600 Climbing FAA TRACON SMA TRACON (SMA)
09:09 45.0394 -92.3639 255° West 317 365 10,500 -1,200 Descending FAA TRACON SMA TRACON (SMA)
09:09 45.0358 -92.4008 262° West 311 358 10,200 -1,080 Descending FAA TRACON SMA TRACON (SMA)
09:09 45.0308 -92.4353 258° West 297 342 9,800 -1,500 Descending FAA TRACON SMA TRACON (SMA)
09:10 45.0211 -92.4761 251° West 285 328 9,200 -1,500 Descending FAA TRACON SMA TRACON (SMA)
09:10 45.0069 -92.4992 229° Southwest 272 313 8,800 -1,500 Descending FAA TRACON SMA TRACON (SMA)
09:10 44.9842 -92.5200 213° Southwest 263 303 8,200 -1,500 Descending FAA TRACON SMA TRACON (SMA)
09:11 44.9658 -92.5364 212° Southwest 255 293 7,800 -1,320 Descending FAA TRACON SMA TRACON (SMA)
09:11 44.9483 -92.5517 212° Southwest 245 282 7,300 -1,200 Descending FAA TRACON SMA TRACON (SMA)
09:11 44.9250 -92.5692 208° Southwest 244 281 7,000 -600 Descending FAA TRACON SMA TRACON (SMA)
09:12 44.9106 -92.5828 214° Southwest 230 265 6,900  Descending FAA TRACON SMA TRACON (SMA)
09:12 44.8939 -92.5956 209° Southwest 217 250 7,000 120 Climbing FAA TRACON SMA TRACON (SMA)
09:12 44.8736 -92.6119 210° Southwest 217 250 7,000 -180 Level FAA TRACON SMA TRACON (SMA)
09:13 44.8572 -92.6256 210° Southwest 221 254 6,900 -960 Descending FAA TRACON SMA TRACON (SMA)
09:13 44.8419 -92.6414 216° Southwest 226 260 6,400 -1,560 Descending FAA TRACON SMA TRACON (SMA)
09:13 44.8292 -92.6628 230° Southwest 232 267 5,900 -1,800 Descending FAA TRACON SMA TRACON (SMA)
09:14 44.8122 -92.6908 230° Southwest 238 274 5,200 -1,800 Descending FAA TRACON SMA TRACON (SMA)
09:14 44.7969 -92.7133 226° Southwest 249 287 4,700 -1,380 Descending FAA TRACON SMA TRACON (SMA)
09:14 44.7817 -92.7356 226° Southwest 257 296 4,300 -1,080 Descending FAA TRACON SMA TRACON (SMA)
09:15 44.7650 -92.7608 227° Southwest 244 281 4,000 -480 Descending FAA TRACON SMA TRACON (SMA)
09:15 44.7528 -92.7792 227° Southwest 222 255 4,000  Level FAA TRACON SMA TRACON (SMA)
09:15 44.7419 -92.7950 226° Southwest 193 222 4,000  Level FAA TRACON SMA TRACON (SMA)
09:16 44.7281 -92.8161 227° Southwest 185 213 4,000  Level FAA TRACON SMA TRACON (SMA)
09:16 44.7167 -92.8331 227° Southwest 189 217 4,000 -180 Level FAA TRACON SMA TRACON (SMA)
09:16 44.7078 -92.8508 235° Southwest 191 220 3,900  Descending FAA TRACON SMA TRACON (SMA)
09:17 44.7139 -92.8733 291° West 184 212 4,000 120 Climbing FAA TRACON SMA TRACON (SMA)
09:17 44.7256 -92.8853 324° Northwest 169 194 4,000  Level FAA TRACON SMA TRACON (SMA)
09:17 44.7378 -92.8964 327° Northwest 167 192 4,000 -300 Level FAA TRACON SMA TRACON (SMA)
09:18 44.7522 -92.9111 324° Northwest 170 196 3,800 -600 Descending FAA TRACON SMA TRACON (SMA)
09:18 44.7633 -92.9236 321° Northwest 169 194 3,600 -600 Descending FAA TRACON SMA TRACON (SMA)
09:18 44.7708 -92.9414 301° West 173 199 3,400 -480 Descending FAA TRACON SMA TRACON (SMA)
09:19 44.7792 -92.9594 303° West 176 203 3,300 -480 Descending FAA TRACON SMA TRACON (SMA)
09:19 44.7894 -92.9831 302° West 183 211 3,100 -480 Descending FAA TRACON SMA TRACON (SMA)
09:19 44.7978 -93.0019 302° West 184 212 3,000 -360 Descending FAA TRACON SMA TRACON (SMA)
09:20 44.8056 -93.0203 301° West 181 208 2,900  Descending FAA TRACON SMA TRACON (SMA)
09:20 44.8158 -93.0431 302° West 177 204 3,000  Climbing FAA TRACON SMA TRACON (SMA)
09:20 44.8236 -93.0608 302° West 177 204 2,900 -300 Descending FAA TRACON SMA TRACON (SMA)
09:21 44.8331 -93.0828 301° West 170 196 2,800 -300 Descending FAA TRACON SMA TRACON (SMA)